• Join FlightAware (Why Join?)
  • Login
  • US Flag 
05:26AM EDT


 

Airport Tracker/Info


-or-


 

Live Flight TrackerFlight Track Log ✈ SCX8700 ✈ 24-Feb-2014 ✈ KMSP - KTPA

Flight Track Log - Related Links

Times and Time Zones

All times are in EST time to prevent confusion due to time zone crossing. See the SCX8700 flight status page for this flight to view local times or setup timezone preferences in your user account.

Time Position Orientation Groundspeed Altitude Reporting Facility
EST Latitude Longitude Course Direction KTS MPH feet Rate Location/Type
06:55AM 44.8167 -93.2167 153° Southeast 217 250 3,000  Level Minneapolis TRACON
06:57AM 44.7331 -93.1981 171° South 269 310 6,700 3,060 Climbing Minneapolis Center
06:58AM 44.6661 -93.1631 160° South 310 357 9,700 3,300 Climbing Minneapolis Center
06:59AM 44.5631 -93.1017 157° South 347 399 13,400 3,120 Climbing Minneapolis Center
07:00AM 44.4672 -93.0456 157° South 370 426 16,100 2,280 Climbing Minneapolis Center
07:01AM 44.1771 -92.8598 153° Southeast  Level FlightAware Approximate
07:01AM 44.3586 -92.9819 157° South 426 490 18,100  Level Minneapolis Center
07:02AM 44.2442 -92.9150 157° South 444 511 20,600 2,520 Climbing Minneapolis Center
07:03AM 44.1261 -92.8325 153° Southeast 470 541 23,200 2,400 Climbing Minneapolis Center
07:04AM 44.0047 -92.7489 154° Southeast 484 557 25,500 2,160 Climbing Minneapolis Center
07:05AM 43.8822 -92.6650 154° Southeast 490 564 27,600 1,920 Climbing Minneapolis Center
07:06AM 43.7514 -92.5950 159° South 498 573 29,400 1,620 Climbing Minneapolis Center
07:07AM 43.6183 -92.5711 173° South 489 563 30,900 1,680 Climbing Minneapolis Center
07:08AM 43.4856 -92.5475 173° South 488 562 32,800 900 Climbing Minneapolis Center
07:13AM 42.7384 -92.4274 173° South 493 567 37,000 660 Climbing FlightAware ADS-B
07:14AM 42.6348 -92.4111 173° South 492 566 37,000  Level FlightAware ADS-B
07:14AM 42.5601 -92.3941 171° South 504 580 37,000  Level FlightAware ADS-B
07:15AM 42.4912 -92.3629 162° South 517 595 37,000  Level FlightAware ADS-B
07:15AM 42.4098 -92.3181 158° South 517 595 37,000  Level FlightAware ADS-B
07:16AM 42.3390 -92.2792 158° South 516 594 37,000  Level FlightAware ADS-B
07:17AM 42.2488 -92.2301 158° South 516 594 37,000  Level FlightAware ADS-B
07:17AM 42.1672 -92.1856 158° South 514 592 37,000  Level FlightAware ADS-B
07:18AM 42.0724 -92.1343 158° South 513 590 37,000  Level FlightAware ADS-B
07:19AM 41.9852 -92.0871 158° South 513 590 37,000  Level FlightAware ADS-B
07:19AM 41.9169 -92.0502 158° South 513 590 37,000  Level FlightAware ADS-B
07:20AM 41.8513 -92.0148 158° South 515 593 37,000  Level FlightAware ADS-B
07:20AM 41.7828 -91.9686 153° Southeast 520 598 37,000  Level FlightAware ADS-B
07:21AM 41.6839 -91.8979 152° Southeast 520 598 37,000  Level FlightAware ADS-B
07:22AM 41.6140 -91.8483 152° Southeast 519 597 37,000  Level FlightAware ADS-B
07:22AM 41.5428 -91.7982 152° Southeast 518 596 37,000  Level FlightAware ADS-B
07:23AM 41.4934 -91.7635 152° Southeast 516 594 37,000  Level FlightAware ADS-B
07:25AM 41.2420 -91.5884 152° Southeast 513 590 37,000  Level FlightAware ADS-B
07:27AM 40.9736 -91.4033 152° Southeast 510 587 37,000  Level Chicago Center
07:28AM 40.8472 -91.3172 153° Southeast 511 588 37,000  Level Chicago Center
07:29AM 40.7158 -91.2253 152° Southeast 511 588 37,000  Level Chicago Center
07:30AM 40.5892 -91.1381 152° Southeast 513 590 37,000  Level Kansas City Center
07:31AM 40.4628 -91.0525 153° Southeast 513 590 37,000  Level Kansas City Center
07:32AM 40.3383 -90.9681 153° Southeast 512 589 37,000  Level Kansas City Center
07:33AM 40.2119 -90.8839 153° Southeast 512 589 37,000  Level Kansas City Center
07:34AM 40.0867 -90.8000 153° Southeast 511 588 37,000  Level Kansas City Center
07:35AM 39.9642 -90.7172 153° Southeast 504 580 37,000  Level Kansas City Center
07:36AM 39.8411 -90.6356 153° Southeast 502 578 37,000  Level Kansas City Center
07:37AM 39.7206 -90.5556 153° Southeast 498 573 37,000  Level Kansas City Center
07:38AM 39.5983 -90.4756 153° Southeast 497 572 37,000  Level Kansas City Center
07:39AM 39.4758 -90.3956 153° Southeast 494 568 37,000  Level Kansas City Center
07:40AM 39.3528 -90.3153 153° Southeast 494 568 37,000  Level Kansas City Center
07:41AM 39.2317 -90.2361 153° Southeast 494 568 37,000  Level Kansas City Center
07:42AM 39.0872 -90.1417 153° Southeast 488 562 37,000  Level Kansas City Center
07:43AM 38.9661 -90.0644 154° Southeast 486 559 37,000  Level Kansas City Center
07:44AM 38.8447 -89.9856 153° Southeast 486 559 37,000  Level Kansas City Center
07:45AM 38.7228 -89.9078 154° Southeast 486 559 37,000  Level Kansas City Center
07:46AM 38.6025 -89.8300 153° Southeast 486 559 37,000  Level Kansas City Center
07:47AM 38.4819 -89.7525 153° Southeast 485 558 37,000  Level Kansas City Center
07:48AM 38.3633 -89.6781 154° Southeast 480 552 37,000 180 Level Kansas City Center
07:49AM 38.2414 -89.5997 153° Southeast 488 562 37,400 480 Climbing Kansas City Center
07:50AM 38.1153 -89.5197 153° Southeast 500 575 38,000 720 Climbing Kansas City Center
07:51AM 37.9772 -89.4347 154° Southeast 509 586 39,000 960 Climbing Kansas City Center
07:52AM 37.8511 -89.3558 154° Southeast 507 583 40,100 780 Climbing Kansas City Center
07:53AM 37.7250 -89.2747 153° Southeast 506 582 40,600 420 Climbing Kansas City Center
07:54AM 37.5992 -89.1953 153° Southeast 506 582 41,000 180 Climbing Kansas City Center
07:55AM 37.4739 -89.1169 154° Southeast 505 581 41,000  Level Kansas City Center
07:56AM 37.3494 -89.0447 155° Southeast 499 574 41,000  Level Memphis Center
07:57AM 37.2253 -88.9697 154° Southeast 499 574 41,000  Level Memphis Center
07:58AM 37.1000 -88.8925 154° Southeast 499 574 41,000  Level Memphis Center
07:59AM 36.9761 -88.8172 154° Southeast 498 573 41,000  Level Memphis Center
08:00AM 36.8522 -88.7422 154° Southeast 493 567 41,000  Level Memphis Center
08:01AM 36.7289 -88.6675 154° Southeast 492 566 41,000  Level Memphis Center
08:02AM 36.6064 -88.5936 154° Southeast 490 564 41,000  Level Memphis Center
08:03AM 36.4594 -88.5053 154° Southeast 489 563 41,000  Level Memphis Center
08:04AM 36.3369 -88.4322 154° Southeast 488 562 41,000  Level Memphis Center
08:05AM 36.2133 -88.3592 155° Southeast 488 562 41,000  Level Memphis Center
08:06AM 36.0894 -88.2861 155° Southeast 488 562 41,000  Level Memphis Center
08:12AM 35.3467 -87.8506 155° Southeast 489 563 41,000  Level FlightAware ADS-B (KMDQ)
08:13AM 35.2673 -87.8046 155° Southeast 489 563 41,000  Level FlightAware ADS-B (KMDQ)
08:14AM 35.1853 -87.7571 155° Southeast 488 562 41,000  Level FlightAware ADS-B (KMDQ)
08:14AM 35.1005 -87.7082 155° Southeast 487 560 41,000  Level FlightAware ADS-B (KMDQ)
08:15AM 35.0315 -87.6685 155° Southeast 483 556 41,000  Level FlightAware ADS-B (KMDQ)
08:16AM 34.9393 -87.6156 155° Southeast 479 551 41,000  Level FlightAware ADS-B (KMDQ)
08:16AM 34.8597 -87.5699 155° Southeast 478 550 41,000  Level FlightAware ADS-B (KMDQ)
08:17AM 34.7815 -87.5252 155° Southeast 476 548 41,000  Level FlightAware ADS-B (KMDQ)
08:18AM 34.6994 -87.4785 155° Southeast 476 548 41,000  Level FlightAware ADS-B (KMDQ)
08:19AM 34.5810 -87.4111 155° Southeast 475 547 41,000  Level FlightAware ADS-B (KMDQ)
08:19AM 34.5022 -87.3664 155° Southeast 475 547 41,000  Level FlightAware ADS-B (KMDQ)
08:20AM 34.4215 -87.3206 155° Southeast 474 545 41,000  Level FlightAware ADS-B (KMDQ)
08:21AM 34.3425 -87.2761 155° Southeast 473 544 41,000  Level FlightAware ADS-B (KMDQ)
08:21AM 34.2632 -87.2313 155° Southeast 474 545 41,000  Level FlightAware ADS-B (KMDQ)
08:22AM 34.1826 -87.1860 155° Southeast 474 545 41,000  Level FlightAware ADS-B (KMDQ)
08:23AM 34.1134 -87.1470 155° Southeast 475 547 41,000  Level FlightAware ADS-B (KMDQ)
08:23AM 34.0266 -87.0984 155° Southeast 474 545 41,000  Level FlightAware ADS-B (KMDQ)
08:24AM 33.9821 -87.0735 155° Southeast 475 547 41,000  Level FlightAware ADS-B (KMDQ)
08:25AM 33.8680 -87.0098 155° Southeast 475 547 41,000  Level FlightAware ADS-B (KMDQ)
08:25AM 33.7910 -86.9670 155° Southeast 475 547 41,000  Level FlightAware ADS-B (KMDQ)
08:26AM 33.7125 -86.9231 155° Southeast 473 544 41,000  Level Atlanta Center
08:27AM 33.5956 -86.8394 149° Southeast 473 544 41,000  Level Atlanta Center
08:28AM 33.4869 -86.7414 143° Southeast 485 558 41,000  Level Atlanta Center
08:29AM 33.3742 -86.6506 146° Southeast 490 564 41,000  Level Atlanta Center
08:30AM 33.2778 -86.5633 143° Southeast 490 564 41,000  Level Atlanta Center
08:31AM 33.1669 -86.4708 145° Southeast 490 564 41,000  Level Atlanta Center
08:32AM 33.0561 -86.3783 145° Southeast 490 564 41,000  Level Atlanta Center
08:33AM 32.9450 -86.2864 145° Southeast 490 564 41,000  Level Atlanta Center
08:34AM 32.8339 -86.1969 146° Southeast 490 564 41,000  Level Atlanta Center
08:35AM 32.7228 -86.1053 145° Southeast 490 564 41,000  Level Atlanta Center
08:36AM 32.6117 -86.0142 145° Southeast 485 558 41,000  Level Atlanta Center
08:37AM 32.4881 -85.9153 146° Southeast 490 564 41,000  Level Atlanta Center
08:38AM 32.3767 -85.8244 145° Southeast 490 564 41,000  Level Atlanta Center
08:39AM 32.2631 -85.7311 145° Southeast 490 564 41,000  Level Atlanta Center
08:40AM 32.1517 -85.6383 145° Southeast 490 564 41,000  Level Atlanta Center
08:43AM 31.8167 -85.3742 146° Southeast 496 571 41,000  Level Jacksonville Center
08:44AM 31.7036 -85.2833 146° Southeast 496 571 41,000  Level Jacksonville Center
08:45AM 31.5925 -85.1950 146° Southeast 496 571 41,000  Level Jacksonville Center
08:46AM 31.4853 -85.1094 146° Southeast 490 564 41,000  Level Jacksonville Center
08:47AM 31.3761 -85.0217 146° Southeast 484 557 41,000  Level Jacksonville Center
08:48AM 31.2669 -84.9342 146° Southeast 477 549 41,000  Level Jacksonville Center
08:49AM 31.1575 -84.8494 146° Southeast 477 549 41,000  Level Jacksonville Center
08:50AM 31.0461 -84.7719 149° Southeast 477 549 41,000  Level Jacksonville Center
08:51AM 30.9344 -84.6922 149° Southeast 472 543 41,000 -420 Level Jacksonville Center
08:56AM 30.3144 -84.2428 149° Southeast 469 540 38,500 -540 Descending FlightAware ADS-B (KTLH)
08:57AM 30.2472 -84.1950 148° Southeast 465 535 37,700 -1,080 Descending FlightAware ADS-B (KTLH)
08:58AM 30.1730 -84.1426 149° Southeast 465 535 37,100 -660 Descending FlightAware ADS-B (KTLH)
08:58AM 30.1104 -84.0984 149° Southeast 464 534 37,000 -120 Descending FlightAware ADS-B (KTLH)
08:59AM 30.0174 -84.0328 149° Southeast 463 533 37,000  Level FlightAware ADS-B (KTLH)
09:00AM 29.9300 -83.9758 149° Southeast 466 536 37,000  Level Jacksonville Center
09:01AM 29.8200 -83.8933 147° Southeast 466 536 37,000 -120 Level Jacksonville Center
09:02AM 29.7100 -83.8228 151° Southeast 466 536 36,800 -1,380 Descending Jacksonville Center
09:03AM 29.5956 -83.7525 152° Southeast 461 531 34,300 -2,400 Descending Jacksonville Center
09:04AM 29.4833 -83.6800 151° Southeast 461 531 32,100 -2,220 Descending Jacksonville Center
09:05AM 29.3753 -83.6100 151° Southeast 455 524 29,900 -2,160 Descending Jacksonville Center
09:06AM 29.2711 -83.5425 151° Southeast 450 518 27,800 -1,620 Descending Jacksonville Center
09:07AM 29.1692 -83.4775 151° Southeast 438 504 26,700 -1,080 Descending Jacksonville Center
09:08AM 29.0672 -83.4153 152° Southeast 428 493 25,700 -1,380 Descending Jacksonville Center
09:09AM 28.9714 -83.3531 150° Southeast 413 475 24,000 -1,800 Descending Jacksonville Center
09:10AM 28.8756 -83.2933 151° Southeast 406 467 22,100 -1,920 Descending Jacksonville Center
09:12AM 28.6500 -83.1500 151° Southeast 371 427 17,700 -1,920 Descending Tampa TRACON
09:13AM 28.5667 -83.1000 152° Southeast 364 419 15,700 -1,920 Descending Tampa TRACON
09:14AM 28.4833 -83.0333 145° Southeast 357 411 13,900 -1,560 Descending Tampa TRACON
09:15AM 28.4000 -82.9833 152° Southeast 342 394 12,600 -1,500 Descending Tampa TRACON
09:16AM 28.3167 -82.9333 152° Southeast 307 353 10,800 -1,500 Descending Tampa TRACON
09:18AM 28.2667 -82.8500 124° Southeast 308 354 9,300 -1,380 Descending Tampa TRACON
09:18AM 28.2833 -82.7667 77° East 297 342 8,100 -1,380 Descending Tampa TRACON
09:19AM 28.2667 -82.6667 101° East 287 330 6,700 -1,620 Descending Tampa TRACON
09:21AM 28.2500 -82.5833 103° East 276 318 4,700 -1,440 Descending Tampa TRACON
09:21AM 28.2167 -82.5333 127° Southeast 246 283 4,000 -960 Descending Tampa TRACON
09:22AM 28.1500 -82.5333 180° South 225 259 3,000 -1,080 Descending Tampa TRACON
09:23AM 28.0833 -82.5333 180° South 224 258 1,900 -1,020 Descending Tampa TRACON
09:24AM 28.0333 -82.5333 180° South 157 181 1,000 -900 Descending Tampa TRACON
09:26AM 27.9755 -82.5332 161° South  Level Estimated
09:33AM 27.9755 -82.5332 161° South  Level Estimated
09:34AM 27.9755 -82.5332 161° South  Level Estimated
09:35AM 27.9755 -82.5332 161° South  Level Estimated